Theta_e
313 312 312 311 311 312 313 315 315 316 316 316 317 317 318 320 319 306 297 305 312 322 321 310 304 302 301 298 298 294 288 284 285 286 288 292 291 294 295 293 295 296 294 297 298
315 314 313 313 312 312 312 313 314 315 316 316 316 317 318 319 309 301 312 316 320 323 305 301 300 300 296 295 295 291 286 287 289 290 289 292 291 294 293 292 293 294 295 297 296
316 315 314 314 313 313 313 313 314 315 315 315 316 317 318 316 301 300 317 318 321 321 307 304 303 300 294 294 293 290 287 290 293 293 294 292 291 294 292 290 293 293 295 295 295
318 316 315 314 313 314 313 313 314 314 315 315 316 316 318 308 291 304 318 320 322 314 306 301 300 295 292 291 293 288 292 293 295 296 294 292 293 292 293 293 295 296 296 295 294
319 318 316 315 314 314 314 314 314 314 315 315 316 317 309 297 298 306 318 314 309 307 301 299 297 295 292 292 292 289 291 294 295 295 294 295 293 292 292 295 295 296 296 294 293
320 318 318 317 316 315 315 315 315 315 315 315 316 316 303 290 305 306 306 308 307 304 302 301 298 298 294 293 291 292 293 293 295 294 294 292 291 292 292 293 294 294 294 293 293
320 319 318 317 317 316 315 315 315 315 315 315 315 310 299 294 304 304 306 305 306 305 301 303 303 297 296 291 296 293 290 291 292 293 292 292 289 290 293 293 293 293 293 293 293
320 319 319 318 317 316 316 315 315 315 315 314 314 303 291 305 303 304 305 304 307 307 305 303 303 300 297 296 293 290 288 284 289 293 293 289 286 289 290 292 292 292 292 292 292
320 319 319 319 318 317 316 316 316 315 314 313 301 296 288 308 299 303 303 302 304 304 304 305 301 295 294 288 284 286 281 282 287 293 291 289 286 290 291 291 291 291 291 292 292
315 319 319 319 318 317 316 316 314 311 309 308 304 289 293 294 299 302 302 304 301 300 298 296 293 289 288 285 281 281 282 284 284 287 289 287 288 292 292 291 291 291 291 291 291
313 314 317 319 318 316 309 303 293 293 299 291 290 290 296 299 301 299 302 301 299 296 288 292 286 282 286 288 288 286 285 283 285 289 287 286 287 290 291 290 290 290 290 290 291
310 312 313 316 318 315 306 300 297 294 286 294 297 297 300 300 293 297 302 293 292 287 290 289 285 288 289 289 288 285 283 282 285 287 286 285 285 289 288 288 288 289 289 290 290
308 309 311 313 316 309 303 302 304 300 286 288 294 295 297 299 294 295 298 295 289 288 288 286 287 291 290 287 286 285 283 281 283 286 285 282 283 283 286 289 290 289 290 291 291
306 307 309 316 308 305 302 304 304 301 289 290 289 292 296 297 290 298 297 294 290 287 288 287 289 289 286 286 287 283 286 285 284 282 277 282 277 281 283 286 288 289 289 289 289
304 305 307 310 305 301 303 303 303 303 282 289 288 297 295 289 292 294 298 294 288 288 288 285 287 286 285 286 287 284 287 285 284 281 279 279 274 281 282 283 285 288 289 288 288
304 304 305 306 304 302 303 302 304 287 281 285 289 289 289 291 292 294 294 295 292 288 286 284 289 288 287 287 287 289 286 284 282 281 274 275 275 279 278 282 284 287 289 289 287
301 302 301 304 301 303 302 302 285 282 289 283 284 288 286 287 289 290 289 287 284 280 281 284 284 287 288 285 287 286 282 275 274 274 277 279 277 282 285 286 287 286 289 289 287
300 301 301 305 303 302 302 289 281 287 287 287 286 285 283 287 287 288 286 284 287 284 281 280 278 285 288 285 283 283 282 277 273 273 276 280 276 283 286 287 288 289 289 289 286
299 297 300 303 303 302 295 283 286 286 290 286 286 281 281 286 286 286 284 283 286 286 283 279 280 285 286 287 286 282 280 282 278 271 274 277 280 284 284 285 286 287 287 287 285
291 291 296 302 303 299 289 286 288 293 290 289 287 285 279 282 283 284 283 287 286 289 287 285 280 284 285 287 286 284 285 278 277 271 271 276 278 280 283 285 285 286 286 286 285
289 288 296 303 301 292 283 285 288 294 294 289 287 284 284 282 283 282 284 287 289 287 289 286 284 281 284 282 282 282 280 281 280 278 275 273 281 284 284 284 286 286 287 286 285
287 280 296 302 286 285 284 287 293 292 294 292 292 290 285 284 283 282 283 285 290 289 285 287 283 277 280 283 284 283 282 281 278 276 276 277 279 286 285 284 286 287 288 287 286
275 282 291 296 281 282 285 286 288 291 292 292 291 292 290 286 283 285 285 288 289 288 287 288 278 272 277 280 281 281 283 283 281 280 277 276 280 286 284 285 285 286 286 287 285
282 275 279 287 285 283 284 285 285 292 291 294 293 293 288 286 287 285 284 287 290 289 294 291 282 282 281 283 281 279 281 282 282 276 279 278 281 286 285 284 285 286 286 286 285
278 277 281 277 279 279 284 283 284 285 288 292 290 292 290 285 285 285 285 285 288 292 288 287 278 279 280 281 281 281 281 281 280 283 280 282 281 289 289 287 287 287 287 287 287
270 280 277 275 281 277 283 279 282 280 285 285 286 290 292 289 289 285 287 286 286 287 286 287 279 279 278 281 280 278 281 281 282 283 282 283 283 290 288 287 286 286 287 287 287
281 285 281 275 275 275 278 278 279 281 285 285 284 285 288 291 294 295 292 291 290 287 285 285 279 279 277 278 276 279 280 281 281 282 284 280 288 287 286 287 287 288 287 287 289
Wind_Speed
9 10 11 10 10 12 13 13 13 13 13 14 15 15 14 15 11 1 1 1 3 9 6 3 2 1 2 2 3 3 5 2 4 6 1 1 2 1 0 3 1 1 4 2 5
10 9 10 11 11 11 12 13 14 14 14 15 15 16 15 15 2 1 1 3 5 6 4 3 0 1 3 1 2 5 4 7 3 3 2 1 3 1 2 0 3 2 2 3 3
9 10 11 12 12 12 12 13 13 15 16 17 17 16 15 8 2 1 2 5 5 2 0 1 1 0 2 1 1 3 5 3 2 2 2 2 2 1 2 5 9 8 7 6 4
10 10 10 10 11 13 14 14 15 14 15 16 17 16 16 1 3 1 3 5 5 4 1 1 0 2 3 3 1 1 3 3 1 2 1 2 1 4 7 7 2 8 6 5 6
11 10 10 10 10 11 12 14 15 15 16 16 16 13 4 1 5 1 3 5 1 3 0 3 3 3 4 4 2 2 1 2 1 1 3 1 5 6 9 10 4 5 5 6 6
11 11 11 10 11 12 12 13 14 16 16 16 15 12 1 2 1 4 5 3 4 1 1 1 4 3 4 2 1 1 3 3 1 1 2 2 3 2 5 3 8 7 8 7 7
13 12 11 10 11 11 12 13 14 14 15 14 10 3 1 6 1 3 1 1 1 2 3 1 2 2 3 3 2 0 5 6 2 1 1 2 7 12 5 4 8 9 8 8 9
13 12 12 11 11 11 12 13 15 14 14 11 8 1 6 1 1 0 0 1 1 2 4 2 0 5 3 2 6 4 5 6 2 4 1 3 10 4 2 7 10 9 8 8 8
14 13 11 12 10 10 12 14 15 15 8 5 2 2 5 0 2 2 1 3 1 2 2 2 5 4 4 4 5 7 3 2 8 5 1 4 8 4 3 6 8 9 8 8 7
18 13 12 11 9 8 9 15 11 6 2 1 2 2 1 3 2 2 1 3 3 3 3 6 5 4 4 4 4 2 3 5 6 1 3 5 20 16 7 8 12 10 9 8 8
18 16 11 10 9 5 4 4 3 2 1 7 3 1 2 1 1 1 1 3 2 6 3 4 4 5 7 6 3 3 2 5 4 0 3 8 17 21 11 10 13 11 9 9 9
20 19 17 14 8 6 3 2 2 2 7 5 2 2 2 3 2 2 2 4 2 4 4 5 5 4 3 3 4 2 2 6 6 1 2 6 23 17 6 6 7 9 9 9 5
19 20 20 21 9 4 3 3 4 3 2 5 5 4 4 5 3 7 5 4 3 5 5 5 0 4 4 3 4 2 4 3 5 7 1 8 11 5 1 2 3 3 5 6 10
18 19 23 7 4 4 3 4 5 3 3 6 5 4 3 6 3 0 2 4 2 8 8 4 1 4 3 3 5 2 2 2 2 5 4 5 8 8 5 7 2 1 3 6 7
16 17 17 22 2 3 1 5 5 1 4 2 2 2 1 4 5 2 2 4 7 6 6 5 6 3 3 4 6 4 3 2 1 1 4 3 4 12 4 4 1 3 4 6 7
17 18 18 4 0 0 3 2 3 4 11 3 2 3 5 1 1 2 3 4 3 4 2 1 0 3 4 3 1 6 4 5 3 2 3 3 5 9 3 4 1 2 6 7 7
19 19 13 5 2 4 2 4 4 6 2 3 4 5 3 4 2 3 5 6 7 6 5 1 3 2 4 5 3 3 4 3 6 3 7 3 1 13 5 6 4 4 8 8 7
19 22 6 4 5 7 3 2 6 6 5 4 4 5 5 6 3 5 6 6 5 2 4 8 5 9 5 5 7 6 6 6 7 3 5 3 8 8 5 2 5 5 4 7 8
20 4 4 5 9 7 4 6 7 7 8 10 4 5 3 4 5 4 6 6 9 11 8 7 2 2 2 3 4 5 6 2 6 2 3 4 8 8 5 7 2 4 5 8 8
4 3 4 8 11 6 4 8 5 3 6 5 8 7 8 6 7 7 9 7 7 14 3 6 4 1 1 3 2 4 4 3 3 3 4 5 6 8 5 7 7 6 8 8 7
3 4 2 2 5 2 5 6 5 6 3 6 7 6 6 8 8 6 7 4 6 7 7 6 5 1 2 7 9 4 3 1 1 4 5 2 7 6 4 4 9 9 8 9 9
3 3 3 2 3 2 3 6 3 3 3 2 2 4 8 9 8 5 11 5 7 10 11 6 6 5 7 1 2 4 7 7 5 6 3 2 10 1 3 1 5 7 8 8 8
2 3 4 2 3 2 3 4 2 3 4 7 4 3 4 7 3 7 6 2 7 9 16 9 3 4 6 3 3 6 7 5 3 2 6 6 8 2 3 4 4 6 7 7 8
2 4 4 2 1 1 3 3 4 3 2 3 3 2 4 1 3 2 5 0 4 6 4 8 3 7 9 5 6 7 7 9 7 4 3 8 8 7 3 4 4 5 5 8 7
2 2 3 3 4 5 3 6 4 3 3 3 3 12 8 5 4 5 3 0 2 2 3 6 7 5 2 3 3 4 6 12 13 13 10 2 12 14 11 9 8 6 5 7 9
3 3 4 2 5 7 2 9 9 8 5 2 6 4 7 9 10 7 7 5 5 3 5 4 3 4 2 2 2 4 7 10 15 12 14 13 27 13 11 4 5 4 7 8 8
2 1 1 5 4 3 4 5 7 11 5 8 13 7 6 7 13 12 6 6 9 8 6 5 6 4 5 1 2 10 14 16 8 8 13 12 24 4 2 6 6 8 9 10 12
Wind_Direction
305 311 318 321 323 324 326 329 333 334 332 335 338 336 338 332 322 301 266 295 332 326 352 281 319 343 60 88 82 121 64 249 242 176 233 280 193 237 137 102 80 185 167 184 127
295 297 300 312 316 320 322 325 327 329 335 338 338 336 335 332 304 325 168 306 321 334 20 45 149 43 47 86 41 93 134 226 207 191 220 212 195 224 23 256 261 244 215 126 112
274 287 296 303 310 311 319 323 325 331 337 338 334 331 328 330 330 249 349 315 316 7 62 306 292 43 104 108 151 151 200 217 234 201 198 215 250 179 160 255 221 208 197 186 179
252 255 270 287 301 310 316 320 325 330 332 331 329 328 325 330 222 248 321 317 328 135 201 19 124 134 139 175 164 219 223 199 175 195 163 231 336 276 194 226 220 215 174 165 197
242 239 250 266 277 290 302 312 318 323 326 327 326 328 338 226 242 214 344 343 97 130 120 194 172 137 171 168 155 190 280 223 255 224 238 298 248 243 257 243 237 171 166 188 208
245 245 241 249 269 284 293 302 309 314 319 323 324 327 298 267 86 1 356 39 33 104 166 81 175 171 115 108 145 276 275 281 267 248 255 253 269 66 255 257 185 184 206 214 214
254 243 244 245 258 271 284 294 300 304 308 313 317 333 319 232 20 332 19 143 214 173 146 239 164 117 142 127 284 202 351 333 222 180 272 86 278 233 202 149 198 209 217 224 226
250 246 248 240 249 266 276 287 293 295 295 293 296 351 243 192 218 201 236 139 72 72 112 176 123 105 63 173 19 38 55 0 2 133 49 92 272 272 189 170 221 220 226 230 236
250 245 242 246 243 251 276 285 288 293 275 264 259 178 264 226 178 184 195 159 103 58 68 100 70 84 31 72 13 16 274 248 315 196 86 168 274 259 159 192 231 227 226 227 245
6 276 248 243 242 255 285 290 284 286 227 167 269 24 194 200 161 146 264 113 120 121 50 50 55 75 46 82 231 245 265 260 254 292 227 256 261 260 235 201 227 225 224 223 232
3 360 329 253 230 248 346 343 7 226 196 200 195 203 153 279 228 69 211 111 79 56 117 6 81 203 214 188 118 111 219 263 270 321 272 243 272 276 258 224 235 231 216 217 223
353 349 351 327 219 161 113 272 244 171 312 223 241 253 167 182 130 205 151 117 109 131 113 37 235 207 142 146 190 214 296 278 282 303 249 321 290 284 259 234 221 233 215 205 181
348 349 339 327 153 130 173 213 147 171 250 276 195 180 193 145 229 198 142 127 121 126 174 163 359 110 133 135 152 211 185 243 247 324 246 311 291 333 290 296 287 240 206 189 184
347 347 340 128 123 150 218 170 165 195 16 255 217 256 123 148 221 29 200 123 89 179 154 229 295 154 139 178 134 276 178 161 332 18 271 10 281 303 312 307 288 243 205 186 159
346 345 343 310 68 198 78 131 146 77 263 91 158 332 114 170 123 333 327 48 156 167 127 232 160 155 154 203 166 219 103 102 68 51 338 355 66 269 334 344 319 206 201 175 164
343 339 340 330 140 281 95 153 77 88 241 159 104 150 116 35 43 116 87 49 133 109 57 208 272 170 182 76 91 139 78 50 56 55 343 223 129 284 257 214 203 196 204 183 166
328 328 316 309 274 136 175 255 97 222 28 188 177 163 128 151 141 147 159 169 160 121 194 62 215 165 135 89 38 89 86 326 345 9 226 150 75 245 250 229 203 189 202 190 174
324 318 247 251 150 134 234 76 192 202 190 129 106 112 177 154 190 168 136 192 237 131 121 159 275 170 182 176 177 181 169 171 212 221 284 109 236 253 211 232 255 244 187 169 178
331 300 269 162 161 166 209 214 198 192 159 142 116 127 239 203 146 140 203 210 200 182 181 157 253 66 92 129 127 188 205 172 107 48 38 232 280 286 256 265 227 195 158 191 189
318 291 255 160 159 177 224 231 237 251 126 153 181 157 180 194 157 187 182 209 204 185 165 203 102 321 151 111 86 178 171 94 344 169 254 277 274 247 256 235 216 213 207 210 191
338 292 335 210 136 199 214 230 223 233 206 161 192 139 189 178 183 201 200 266 212 179 156 147 114 322 124 211 171 146 213 83 148 171 180 261 262 213 244 212 205 220 209 203 194
325 276 332 263 163 206 221 184 239 227 81 307 217 150 168 169 181 220 215 238 170 143 181 187 120 166 205 280 190 161 192 177 154 219 236 140 274 245 228 314 200 229 214 204 198
348 285 313 310 211 216 277 261 270 232 174 199 224 206 133 171 203 193 197 324 174 158 159 181 221 82 354 349 334 219 190 167 122 77 210 154 253 167 235 265 252 246 240 210 197
340 316 309 16 43 23 307 246 218 239 263 234 253 146 109 126 241 155 227 343 319 191 184 130 157 176 187 184 134 196 191 178 155 146 213 229 283 278 271 266 260 240 230 206 206
56 297 305 348 353 348 299 341 317 255 234 213 260 214 171 183 184 220 201 54 332 229 172 163 194 166 208 135 139 184 179 184 201 209 200 211 232 248 242 238 231 210 196 198 205
107 325 353 328 329 346 22 13 5 343 333 312 288 231 225 209 203 186 184 170 203 194 195 206 184 115 295 219 247 259 223 193 215 234 251 261 277 266 231 253 256 215 212 224 221
286 158 111 324 350 15 14 16 18 5 21 39 338 317 276 297 287 252 180 181 154 161 199 180 133 110 257 116 134 278 202 190 198 211 208 200 238 243 147 199 240 255 230 219 222